Location: Balsareny
(41.8670°N, 1.8830°E)
Time: 06:25:44
(UTC+02:00)

X-37B - Pass Details

Date: 26 June 2021
Orbit: 383 x 392 km, 45.0° (Epoch: 01 July)

Event Time Altitude Azimuth Distance (km) Brightness Sun altitude
Rises 01:21:18 0° 286° (WNW) 2,256 4.8 -24.3°
Reaches altitude 10° 01:23:24 10° 292° (WNW) 1,402 3.7 -24.4°
Enters shadow 01:24:02 15° 295° (WNW) 1,152 3.3 -24.4°
